GEFSSE_con_cape1000_162.txt.gz
Probability
3 26 65 58 65 65 65 68 68 68 68 61 68 58 65 58 55 55 58 61 58 65 61 65 65 65 68 65 61 61 61 55 58 65 61 58 58 68 71 58 42 65 55
10 39 55 58 55 61 65 65 65 65 65 61 58 55 55 48 48 52 52 52 52 52 52 48 52 48 48 58 52 39 42 42 39 52 45 48 55 55 52 48 48 55 52
19 39 52 58 58 55 58 58 58 55 52 48 45 42 39 35 42 39 45 45 45 42 48 55 52 48 45 45 42 35 39 42 35 35 39 16 35 52 48 45 52 52 52
10 29 39 52 52 55 58 48 52 48 48 45 39 32 32 35 32 32 35 29 23 23 32 32 39 39 39 35 35 39 35 42 39 26 13 19 23 52 39 45 52 55 52
10 23 39 42 39 39 35 35 35 39 32 32 32 32 29 26 29 26 23 16 19 16 16 19 23 26 23 26 32 29 42 35 29 19 6 10 13 45 45 52 48 48 42
3 23 29 35 32 32 23 23 23 26 26 32 23 19 16 19 16 16 16 16 16 13 13 16 16 16 13 13 16 26 32 32 10 6 6 16 29 39 45 55 55 48 45
10 23 26 32 29 26 23 23 19 19 16 19 19 13 13 16 19 10 10 10 13 10 10 13 16 16 13 13 13 19 26 26 10 6 13 23 39 55 45 52 58 48 48
3 10 16 29 26 26 19 16 13 13 13 13 10 10 10 13 13 13 13 13 13 10 10 16 10 13 10 19 16 19 29 16 6 6 13 26 52 48 42 48 42 48 48
3 6 6 13 13 13 19 13 10 16 6 10 10 13 13 13 13 13 16 13 10 10 13 6 6 6 6 13 16 26 23 23 3 6 19 35 52 39 35 42 42 48 45
3 0 0 0 0 0 6 6 6 13 13 13 13 13 13 16 10 13 13 10 10 6 3 3 3 6 10 13 19 26 29 16 6 13 13 35 48 39 42 42 42 45 42
0 0 0 0 0 0 0 3 6 6 3 3 3 10 0 0 0 3 6 13 3 3 0 3 3 6 3 6 16 26 6 0 6 10 19 39 45 39 32 32 39 42 42
0 0 0 0 0 0 0 0 0 0 0 0 0 0 0 0 0 0 3 10 3 6 0 3 6 3 3 0 0 3 0 0 3 10 26 58 45 39 35 35 39 48 45
0 0 0 0 0 0 0 0 0 0 0 0 0 0 0 0 0 0 0 0 3 3 0 0 0 0 0 0 0 0 0 0 3 16 29 52 39 35 32 35 42 48 45
0 0 0 0 0 0 0 0 0 0 0 0 0 0 0 0 0 0 0 0 0 0 0 0 0 0 0 0 0 0 0 3 3 10 26 58 55 45 42 42 45 48 55
0 0 0 0 0 0 0 0 0 0 0 0 0 0 0 0 0 0 0 0 0 0 0 0 0 0 0 0 0 0 3 6 3 3 10 55 55 52 45 52 55 55 48
0 0 0 0 0 0 0 0 0 0 0 0 0 0 0 0 0 0 0 0 0 0 0 0 0 0 0 0 0 0 0 0 3 6 10 19 39 48 45 45 42 42 39
0 0 0 0 0 0 0 0 0 0 0 0 0 0 0 0 0 0 0 0 0 0 0 0 0 0 0 0 0 0 0 3 6 3 6 6 10 23 32 42 42 45 42
0 0 0 0 0 0 0 0 0 0 0 0 0 0 0 0 0 0 0 0 0 0 0 0 0 0 0 0 0 0 0 0 6 6 3 0 0 10 23 26 29 35 39
0 0 0 0 0 0 0 0 0 0 0 0 0 0 0 0 0 0 0 0 0 0 0 0 0 0 0 0 0 0 0 0 0 3 3 0 0 0 0 13 16 19 29
0 0 0 0 0 0 0 0 0 0 0 0 0 0 0 0 0 0 0 0 0 0 0 0 0 0 0 0 0 0 0 0 0 0 0 0 0 0 0 0 6 13 19
0 0 0 0 0 0 0 0 0 0 0 0 0 0 0 0 0 0 0 0 0 0 0 0 0 0 0 0 0 0 0 0 0 0 0 0 0 0 0 0 3 3 10
0 0 0 0 0 0 0 0 0 0 0 0 0 0 0 0 0 0 0 0 0 0 0 0 0 0 0 0 0 0 0 0 0 0 0 0 0 0 0 3 3 0 0
0 0 0 0 0 0 0 0 0 0 0 0 0 0 0 0 0 0 0 0 0 0 0 0 0 0 0 0 0 0 0 0 0 0 0 0 0 0 0 3 3 0 0
0 0 0 0 0 0 0 0 0 0 0 0 0 0 0 0 0 0 0 0 0 0 0 0 0 0 0 0 0 0 0 0 0 0 0 0 0 0 0 3 0 0 0
0 0 0 0 0 0 0 0 0 0 0 0 0 0 0 0 0 0 0 0 0 0 0 0 0 0 0 0 0 0 0 0 0 0 0 0 0 0 0 0 0 0 0
0 0 0 0 0 0 0 0 0 0 0 0 0 0 0 0 0 0 0 0 0 0 0 0 0 0 0 0 0 0 0 0 0 0 0 0 0 0 0 0 0 0 0

GEFSSE_con_cape1000_168.txt.gz
Probability
0 3 48 55 52 48 55 58 55 68 74 71 71 74 71 65 65 68 61 65 68 71 71 68 71 68 65 65 61 55 58 58 55 55 58 58 52 52 52 61 52 55 45
0 23 45 45 45 52 55 48 45 58 61 61 55 52 55 52 52 55 55 55 61 58 58 65 65 65 58 55 48 52 52 48 55 65 52 45 48 48 45 52 45 52 45
10 23 39 42 45 48 45 48 45 52 58 52 48 48 42 39 39 42 48 48 52 45 48 48 52 61 58 58 55 52 48 42 45 55 39 23 32 52 52 48 52 48 52
19 23 29 39 39 48 45 48 48 39 42 35 32 32 39 32 32 26 29 32 26 26 29 29 39 42 39 48 55 45 45 42 35 32 16 19 16 42 48 45 48 52 42
19 19 26 42 39 42 45 39 35 32 29 29 16 16 23 23 19 19 19 19 16 16 13 19 16 19 29 35 35 45 42 32 23 13 6 10 16 39 52 48 45 48 45
13 16 32 42 39 39 29 23 26 23 26 26 13 16 19 19 19 19 19 13 10 10 13 10 13 16 23 29 39 39 39 29 10 6 6 13 16 48 45 48 52 42 48
6 16 23 35 29 23 23 23 13 16 23 19 16 13 16 13 10 10 10 10 10 10 10 13 16 16 16 19 26 29 32 26 6 6 10 10 26 48 45 48 45 39 42
6 10 10 23 16 19 16 13 10 10 10 10 10 6 10 13 10 6 10 10 10 13 13 10 10 16 19 23 26 32 29 19 6 10 6 13 55 42 35 45 45 42 42
3 10 6 6 10 10 10 10 13 10 13 13 10 10 6 10 10 10 6 10 10 13 13 13 16 16 26 23 29 35 35 26 3 6 13 16 52 48 42 42 48 52 48
0 0 3 3 3 6 6 6 13 10 13 10 10 10 16 10 10 13 6 6 10 10 6 10 13 19 26 26 29 32 32 16 3 6 6 26 45 42 45 45 42 45 39
0 0 0 0 0 0 0 0 0 0 3 3 3 3 3 0 0 0 3 10 6 3 3 10 10 13 13 19 26 23 6 0 3 6 13 45 35 39 45 45 45 35 39
0 0 0 0 0 0 0 0 0 0 0 0 0 0 0 0 0 0 0 0 0 0 0 3 0 0 0 0 3 3 0 0 3 10 16 45 35 32 39 45 45 39 35
0 0 0 0 0 0 0 0 0 0 0 0 0 0 0 0 0 0 0 0 0 0 0 0 0 0 0 0 0 0 0 0 3 3 16 45 35 39 39 45 48 32 45
0 0 0 0 0 0 0 0 0 0 0 0 0 0 0 0 0 0 0 0 0 0 0 0 0 0 0 0 0 0 0 3 3 3 16 52 45 52 55 55 48 42 45
0 0 0 0 0 0 0 0 0 0 0 0 0 0 0 0 0 0 0 0 0 0 0 0 0 0 0 0 0 0 3 3 3 6 6 39 45 42 48 48 52 52 42
0 0 0 0 0 0 0 0 0 0 0 0 0 0 0 0 0 0 0 0 0 0 0 0 0 0 0 0 0 0 0 0 0 3 3 3 26 32 32 35 35 35 32
0 0 0 0 0 0 0 0 0 0 0 0 0 0 0 0 0 0 0 0 0 0 0 0 0 0 0 0 0 0 0 0 0 3 3 3 3 23 26 26 29 35 35
0 0 0 0 0 0 0 0 0 0 0 0 0 0 0 0 0 0 0 0 0 0 0 0 0 0 0 0 0 0 0 0 0 0 0 0 0 0 6 23 23 26 26
0 0 0 0 0 0 0 0 0 0 0 0 0 0 0 0 0 0 0 0 0 0 0 0 0 0 0 0 0 0 0 0 0 0 0 0 0 0 0 0 13 19 26
0 0 0 0 0 0 0 0 0 0 0 0 0 0 0 0 0 0 0 0 0 0 0 0 0 0 0 0 0 0 0 0 0 0 0 0 0 0 0 0 0 6 19
0 0 0 0 0 0 0 0 0 0 0 0 0 0 0 0 0 0 0 0 0 0 0 0 0 0 0 0 0 0 0 0 0 0 0 0 0 0 0 0 0 0 0
0 0 0 0 0 0 0 0 0 0 0 0 0 0 0 0 0 0 0 0 0 0 0 0 0 0 0 0 0 0 0 0 0 0 0 0 0 0 3 0 0 0 0
0 0 0 0 0 0 0 0 0 0 0 0 0 0 0 0 0 0 0 0 0 0 0 0 0 0 0 0 0 0 0 0 0 0 0 0 0 0 0 0 0 0 0
0 0 0 0 0 0 0 0 0 0 0 0 0 0 0 0 0 0 0 0 0 0 0 0 0 0 0 0 0 0 0 0 0 0 0 0 0 0 0 0 0 0 0
0 0 0 0 0 0 0 0 0 0 0 0 0 0 0 0 0 0 0 0 0 0 0 0 0 0 0 0 0 0 0 0 0 0 0 0 0 0 0 0 0 0 0
0 0 0 0 0 0 0 0 0 0 0 0 0 0 0 0 0 0 0 0 0 0 0 0 0 0 0 0 0 0 0 0 0 0 0 0 0 0 0 0 0 0 0

GEFSSE_con_cape1000_174.txt.gz
Probability
3 19 45 45 52 45 48 32 45 58 58 58 71 65 61 61 61 52 58 65 65 61 65 74 65 58 58 61 61 65 58 61 65 55 48 45 52 48 39 42 48 48 48
3 19 39 48 42 39 39 29 35 35 45 48 48 48 52 48 45 48 55 55 58 58 58 61 61 58 65 61 58 61 52 58 58 55 48 52 45 39 39 48 42 48 45
3 19 26 39 42 39 35 29 32 32 35 39 39 39 42 39 39 39 32 42 48 48 55 55 58 61 55 52 52 45 42 52 45 39 42 35 45 45 45 48 52 48 45
3 23 26 45 42 42 32 29 23 26 19 23 26 26 26 29 32 29 29 32 29 35 32 35 39 48 48 55 45 48 32 35 39 32 32 35 32 45 48 48 52 52 48
3 16 23 39 42 42 32 29 29 23 23 16 16 16 16 23 23 19 23 23 23 23 19 26 26 29 29 29 45 39 32 23 26 29 35 45 52 52 48 48 55 52 48
10 13 26 35 32 32 26 19 23 19 16 13 10 10 13 19 19 16 13 13 10 10 13 13 19 23 16 19 32 32 26 16 19 39 39 45 52 52 42 45 52 48 48
13 13 19 29 26 19 19 16 16 16 13 6 6 10 10 16 13 13 13 13 10 10 16 16 13 23 16 19 26 35 19 26 19 39 42 45 48 48 48 55 55 48 52
13 13 13 19 19 13 16 10 10 13 13 10 10 6 10 13 16 13 13 10 13 13 13 13 19 16 16 23 26 29 23 23 13 13 35 45 55 45 39 55 45 45 48
10 10 10 6 6 6 13 13 13 13 10 13 13 13 10 10 13 13 10 13 10 10 13 16 23 13 19 19 23 32 19 23 19 19 16 45 45 42 39 52 48 42 45
6 6 6 6 6 6 6 6 6 10 10 10 10 10 13 13 13 13 6 6 6 10 10 13 19 19 29 26 29 23 19 13 10 6 26 35 48 42 42 39 42 42 45
6 6 6 6 3 3 3 3 3 6 6 6 6 3 6 0 0 0 3 10 3 3 3 16 16 10 13 23 16 16 16 13 6 13 26 29 39 39 39 42 35 35 42
3 3 3 3 0 3 0 0 6 3 3 3 6 3 3 3 0 0 0 6 3 3 3 13 10 6 6 13 13 16 16 10 16 19 23 32 35 35 39 45 39 35 39
0 0 0 0 0 0 0 0 3 0 0 0 0 0 0 3 3 0 0 0 0 0 0 3 3 6 6 13 19 19 23 16 23 19 29 35 39 48 42 32 48 42 42
0 0 0 0 3 0 0 0 0 0 0 0 0 0 0 3 3 3 0 3 3 3 0 6 6 6 6 6 6 10 13 13 26 23 32 29 42 48 35 29 39 35 32
0 3 0 0 0 0 0 0 0 0 0 0 0 0 0 0 3 3 0 3 3 3 0 3 3 10 10 3 6 6 6 13 13 13 13 23 26 32 35 29 29 32 32
0 0 0 0 0 0 0 0 0 0 0 0 0 0 0 0 3 0 0 3 3 0 0 3 0 10 6 6 13 13 10 10 13 10 13 16 13 19 32 29 29 29 32
0 0 0 0 0 0 0 0 0 0 0 0 0 0 0 0 0 0 0 0 0 0 0 3 3 6 3 3 6 6 10 6 6 6 10 16 10 10 23 23 32 32 23
0 0 0 0 0 0 0 0 0 0 0 0 0 0 0 0 0 3 0 0 0 0 0 3 3 6 3 3 10 10 10 13 13 10 10 6 10 6 6 13 19 23 26
3 3 0 0 0 0 0 0 0 0 0 0 0 0 0 0 0 0 0 0 0 0 3 3 3 3 3 6 0 6 3 0 10 6 6 6 6 6 6 6 13 13 23
3 3 0 0 0 0 0 0 0 0 0 0 0 0 0 0 0 0 0 0 0 0 3 6 6 3 3 3 0 0 10 10 13 13 10 3 6 6 6 6 6 10 13
3 0 0 0 0 0 0 0 0 0 0 0 0 0 0 0 0 0 0 0 0 3 3 6 6 3 3 3 3 6 10 6 10 19 16 6 3 6 3 3 10 13 13
3 0 0 0 0 0 0 0 0 0 0 0 0 0 0 0 0 0 0 0 0 6 6 3 3 3 3 3 3 3 0 3 6 3 10 10 10 6 6 0 6 6 13
3 0 0 0 0 0 0 0 0 0 0 0 0 0 0 0 0 0 0 0 3 6 6 3 3 3 3 3 0 0 3 0 3 6 6 6 6 6 3 3 3 3 3
6 0 0 0 0 0 0 0 0 0 0 0 0 0 0 0 0 0 0 0 0 6 0 0 0 0 0 0 0 0 0 0 0 6 3 3 3 6 6 0 0 3 6
3 0 0 0 0 0 0 0 0 0 0 0 0 0 0 0 0 0 0 0 0 0 0 0 0 0 0 0 0 0 0 0 0 0 6 3 6 6 6 0 0 6 10
3 3 0 0 0 0 0 0 0 0 0 0 0 0 0 0 0 0 0 0 0 0 0 0 0 0 0 0 3 0 3 3 3 3 3 6 6 6 3 3 6 6 10

GEFSSE_con_cape1000_180.txt.gz
Probability
35 42 58 58 48 45 45 39 48 39 39 42 42 48 55 55 58 58 61 65 61 58 58 68 65 68 71 65 61 48 45 45 45 45 45 52 48 45 45 52 55 55 55
23 29 55 48 42 45 42 48 48 42 35 39 32 39 45 48 48 52 52 58 48 48 52 55 55 61 61 55 45 45 42 42 45 45 48 52 42 45 45 55 58 48 52
23 29 39 39 42 32 29 39 42 29 29 29 26 29 35 42 39 39 42 45 48 45 32 42 52 55 52 48 42 42 48 42 48 48 55 29 48 52 55 48 55 58 45
23 23 23 48 45 35 29 26 26 29 19 26 23 19 23 29 29 29 29 32 35 35 29 26 29 39 39 42 45 39 32 45 48 58 35 29 29 55 58 58 52 48 48
19 26 35 45 39 29 29 29 26 19 23 16 13 13 19 19 26 19 23 23 26 26 23 19 23 29 29 29 35 35 29 45 48 39 29 26 26 55 61 58 55 48 55
23 23 32 39 35 29 26 23 19 16 10 13 13 16 16 19 13 13 13 10 10 13 16 19 23 23 26 29 35 29 29 42 35 26 26 23 26 58 58 58 58 58 52
16 16 19 29 19 23 23 19 19 16 10 6 6 10 13 13 13 13 10 10 10 13 13 16 13 16 13 23 26 26 23 39 23 23 26 29 39 65 61 55 52 52 48
13 13 13 26 26 19 10 10 23 16 6 6 10 10 10 10 13 13 10 6 6 13 13 13 10 10 16 19 16 19 26 39 19 19 23 29 42 55 55 52 52 52 42
10 10 10 10 6 10 10 10 6 10 10 13 6 6 6 3 10 10 10 6 6 13 10 10 10 19 16 13 13 19 29 39 13 16 13 23 45 42 45 48 39 39 39
6 6 6 6 3 3 6 6 10 10 6 10 10 10 10 13 13 10 13 6 6 3 10 6 16 13 10 13 13 26 32 29 13 16 16 29 45 39 42 48 45 45 42
6 6 6 0 0 3 3 6 6 6 3 6 10 10 10 3 0 3 3 6 3 3 6 10 10 10 10 16 26 23 23 6 10 16 19 35 35 42 45 39 35 48 39
6 6 6 3 3 3 3 3 3 3 3 0 0 0 0 0 0 0 3 6 6 3 3 6 10 13 6 10 13 16 3 3 13 16 19 39 39 42 35 35 35 39 32
6 3 6 3 0 0 0 0 3 3 0 0 0 3 3 0 0 0 0 0 0 3 0 0 6 6 6 6 3 3 3 3 10 6 19 48 45 39 35 39 29 35 32
6 6 3 3 3 0 0 0 0 0 0 0 0 0 3 3 0 0 0 0 0 0 0 3 6 3 3 3 3 3 3 3 6 10 13 35 35 35 35 32 26 29 32
3 3 6 3 3 0 0 0 0 0 0 0 0 0 3 3 0 0 0 3 0 3 3 0 3 3 3 6 6 6 6 6 6 13 10 29 32 32 32 35 23 19 26
0 0 6 3 3 0 0 0 0 0 0 0 0 0 0 0 0 0 0 0 0 0 0 3 3 6 3 6 6 6 6 6 6 6 6 10 26 26 23 23 19 19 19
0 0 0 0 0 0 0 0 0 0 0 0 0 0 0 0 0 0 0 0 0 0 0 0 3 6 6 3 6 6 6 3 3 3 10 6 6 10 19 16 19 19 16
0 0 0 0 0 0 0 0 0 0 0 0 0 0 0 0 0 0 0 0 0 0 0 0 3 3 3 6 6 6 3 3 0 6 3 3 3 3 6 13 16 13 16
0 3 0 0 0 0 0 0 0 0 0 0 0 0 0 0 0 0 0 0 0 0 0 0 0 3 3 3 3 3 3 3 0 3 3 3 3 3 3 3 6 13 10
3 0 0 0 0 0 0 0 0 0 0 0 0 0 0 0 0 0 0 0 0 0 0 0 0 3 3 3 0 0 0 0 3 6 6 3 3 3 3 3 3 3 10
3 0 0 0 0 0 0 0 0 0 0 0 0 0 0 0 0 0 0 0 0 0 0 0 0 0 0 0 0 0 0 0 3 6 6 3 3 3 0 3 3 3 3
3 0 0 0 0 0 0 0 0 0 0 0 0 0 0 0 0 0 0 0 0 0 0 0 0 0 0 0 0 0 0 0 0 0 6 3 3 0 0 0 3 3 0
3 0 0 0 0 0 0 0 0 0 0 0 0 0 0 0 0 0 0 0 0 0 0 0 0 0 0 0 0 0 0 0 0 0 6 3 3 3 0 0 3 0 0
6 0 0 0 0 0 0 0 0 0 0 0 0 0 0 0 0 0 0 0 0 0 0 0 0 0 0 0 0 0 0 0 0 0 3 0 3 3 3 3 3 0 0
3 3 0 0 0 0 0 0 0 0 0 0 0 0 0 0 0 0 0 0 0 0 3 0 0 0 0 0 0 0 0 0 0 0 0 0 0 0 3 0 0 0 0
6 10 0 0 0 0 0 0 0 0 0 0 0 0 0 0 0 0 0 0 3 0 0 3 3 0 0 0 0 0 0 0 0 0 0 0 0 0 0 0 0 0 0

GEFSSE_con_cape1000_186.txt.gz
Probability
10 29 65 65 61 61 61 61 52 65 55 55 61 61 61 58 58 61 68 71 65 65 61 61 55 65 58 58 52 65 68 68 58 52 45 42 48 52 52 48 45 58 45
13 42 65 65 58 55 55 58 61 52 52 48 48 52 48 52 55 61 58 55 52 48 48 52 52 48 45 45 42 48 55 55 58 55 45 42 42 45 45 52 52 42 52
13 39 61 61 52 52 55 52 52 48 42 45 42 42 45 48 45 55 45 42 35 42 39 35 45 39 39 39 39 48 52 48 45 42 39 19 35 48 45 52 52 45 55
16 23 42 61 52 42 48 48 48 42 45 42 35 35 42 35 39 39 42 35 29 29 26 26 29 32 32 35 35 48 42 42 35 32 13 13 16 45 52 48 45 48 48
13 26 52 61 45 45 48 45 42 32 35 35 32 32 29 32 35 32 26 29 23 19 19 19 16 19 19 26 39 45 35 45 45 19 10 10 10 45 52 52 48 58 52
10 23 45 55 45 39 39 32 32 29 35 32 32 32 29 29 29 23 19 19 26 13 16 16 16 13 19 29 32 35 42 42 16 3 6 10 16 45 42 45 48 42 48
3 6 23 48 32 35 32 32 26 26 26 26 23 19 16 16 19 13 16 16 13 16 10 13 13 13 16 19 29 35 32 29 6 6 6 13 29 42 42 52 39 32 42
6 10 16 29 29 29 29 26 29 26 23 23 19 16 13 13 16 19 10 10 6 6 10 10 10 13 10 19 29 32 39 19 13 10 10 16 35 35 39 45 29 35 39
10 10 6 10 13 23 26 26 19 19 13 16 13 13 13 13 13 10 10 6 3 3 3 10 13 10 10 16 29 26 29 23 0 10 10 16 32 32 29 45 45 35 39
3 6 6 6 6 6 6 16 16 16 13 6 6 10 6 6 13 10 13 3 3 3 3 0 6 13 13 13 26 26 26 6 3 10 10 23 42 32 39 35 29 29 35
3 6 6 3 3 3 3 6 13 6 10 6 6 16 6 3 3 10 6 10 6 3 3 3 10 10 10 13 13 16 3 0 0 3 16 29 35 32 32 29 26 32 29
3 6 3 3 3 3 3 0 0 0 0 0 3 0 0 0 0 0 3 3 3 3 6 3 6 10 3 0 3 0 0 0 0 6 19 32 35 32 32 29 23 23 26
3 3 0 3 0 0 0 0 0 0 0 0 0 0 0 0 0 0 0 0 0 0 0 0 0 0 0 0 0 0 0 0 0 6 13 29 23 26 23 26 26 23 23
0 0 0 0 0 0 0 0 0 0 0 0 0 0 0 0 0 0 0 0 0 0 0 0 0 0 0 0 0 0 0 0 0 0 10 16 19 19 26 23 23 19 19
0 3 0 0 0 0 0 0 0 0 0 0 0 0 0 0 0 0 0 0 0 0 0 0 0 0 0 0 0 0 0 0 3 0 0 16 26 16 23 29 23 19 23
0 3 0 0 0 0 0 0 0 0 0 0 0 0 0 0 0 0 0 0 0 0 0 0 0 0 0 0 0 0 0 0 3 0 0 0 19 16 19 16 16 19 19
0 0 0 0 0 0 0 0 0 0 0 0 0 0 0 0 0 0 0 0 0 0 0 0 0 0 0 0 0 0 0 0 0 0 0 0 0 6 10 10 13 13 19
0 0 0 0 0 0 0 0 0 0 0 0 0 0 0 0 0 0 0 0 0 0 0 0 0 0 0 0 0 0 0 0 0 0 0 0 0 0 3 10 10 10 10
0 0 0 0 0 0 0 0 0 0 0 0 0 0 0 0 0 0 0 0 0 0 0 0 0 0 0 0 0 0 0 0 0 0 0 0 0 0 3 3 3 3 3
0 0 0 0 0 0 0 0 0 0 0 0 0 0 0 0 0 0 0 0 0 0 0 0 0 0 0 0 0 0 0 0 0 0 0 0 0 0 0 0 0 0 3
0 0 0 0 0 0 0 0 0 0 0 0 0 0 0 0 0 0 0 0 0 0 0 0 0 0 0 0 0 0 0 0 0 0 0 0 0 0 0 0 0 0 0
0 0 0 0 0 0 0 0 0 0 0 0 0 0 0 0 0 0 0 0 0 0 0 0 0 0 0 0 0 0 0 0 0 0 0 0 0 0 0 0 0 0 0
0 0 0 0 0 0 0 0 0 0 0 0 0 0 0 0 0 0 0 0 0 0 0 0 0 0 0 0 0 0 0 0 0 0 0 0 0 0 0 0 0 0 0
0 0 0 0 0 0 0 0 0 0 0 0 0 0 0 0 0 0 0 0 0 0 0 0 0 0 0 0 0 0 0 0 0 0 0 0 0 0 0 0 0 0 0
0 0 0 0 0 0 0 0 0 0 0 0 0 0 0 0 0 0 0 0 0 0 0 0 0 0 0 0 0 0 0 0 0 0 0 0 0 0 0 0 0 0 0
0 0 0 0 0 0 0 0 0 0 0 0 0 0 0 0 0 0 0 0 0 0 0 0 0 0 0 0 0 0 0 0 0 0 0 0 0 0 0 0 0 0 0

GEFSSE_con_cape1000_192.txt.gz
Probability
0 3 52 45 48 55 52 55 48 55 55 55 55 58 55 61 58 52 55 45 55 61 61 58 65 61 68 68 61 65 68 68 58 52 55 55 52 48 45 55 48 52 55
0 16 55 52 42 45 42 39 39 32 39 48 48 48 45 52 55 48 45 45 45 45 61 52 52 55 61 68 61 58 61 68 58 58 52 45 48 45 42 52 48 45 55
6 19 45 52 45 39 39 39 42 32 39 39 42 45 45 42 42 42 39 39 42 35 32 39 42 48 48 58 48 52 55 52 45 42 39 13 32 52 45 48 55 55 58
10 19 29 45 45 45 32 39 35 32 42 42 35 35 39 45 42 32 32 32 32 32 29 32 35 35 32 42 42 52 45 45 35 29 13 13 19 42 48 52 55 55 48
10 13 26 39 42 42 35 29 35 35 39 32 32 29 35 35 35 35 32 35 23 19 23 29 32 35 39 35 39 52 42 45 26 10 10 10 16 45 42 48 52 52 42
10 13 23 42 35 35 39 29 26 26 32 26 32 29 26 29 32 32 26 19 19 19 23 26 26 35 32 29 39 42 42 35 10 3 10 10 19 39 32 35 45 45 35
6 6 16 32 26 23 23 23 23 23 19 23 23 19 23 23 19 23 19 16 16 19 16 16 16 26 29 26 29 42 39 26 3 6 10 13 23 45 29 29 39 35 35
6 6 6 19 23 13 10 16 16 13 13 16 16 13 16 16 19 13 13 19 16 19 10 13 23 23 19 29 32 35 32 16 6 13 13 19 32 39 39 42 42 32 29
6 6 6 6 6 13 16 16 10 13 13 13 10 13 13 16 13 10 13 13 13 13 3 13 16 13 26 32 39 35 35 23 0 3 19 19 39 42 42 35 32 32 32
6 6 6 6 6 6 6 13 10 10 13 13 10 10 16 16 10 16 13 10 6 6 6 10 16 19 16 23 29 35 23 0 0 0 13 26 39 39 42 29 29 26 29
6 6 3 6 3 3 3 6 6 6 6 6 6 13 3 3 3 3 3 10 6 6 6 10 16 13 10 13 23 16 0 0 0 3 16 35 39 35 39 35 26 23 23
3 6 3 3 0 0 3 0 0 0 0 0 0 0 0 0 0 0 3 10 6 3 3 6 6 0 0 0 0 0 0 0 0 0 16 32 29 29 26 32 32 26 23
0 0 3 0 0 0 0 0 0 0 0 0 0 0 0 0 0 0 0 0 0 0 0 0 0 0 0 0 0 0 0 0 0 0 13 26 26 29 26 29 29 26 26
0 0 0 0 0 0 0 0 0 0 0 0 0 0 0 0 0 0 0 0 0 0 0 0 0 0 0 0 0 0 0 0 0 0 3 16 19 19 23 19 19 23 19
0 0 0 0 0 0 0 0 0 0 0 0 0 0 0 0 0 0 0 0 0 0 0 0 0 0 0 0 0 0 0 0 0 0 0 10 13 19 19 19 19 19 16
0 0 0 0 0 0 0 0 0 0 0 0 0 0 0 0 0 0 0 0 0 0 0 0 0 0 0 0 0 0 0 0 0 0 0 0 3 3 6 16 16 16 10
0 0 0 0 0 0 0 0 0 0 0 0 0 0 0 0 0 0 0 0 0 0 0 0 0 0 0 0 0 0 0 0 0 0 0 0 0 0 0 6 6 3 10
0 0 0 0 0 0 0 0 0 0 0 0 0 0 0 0 0 0 0 0 0 0 0 0 0 0 0 0 0 0 0 0 0 0 0 0 0 0 0 3 0 3 0
0 0 0 0 0 0 0 0 0 0 0 0 0 0 0 0 0 0 0 0 0 0 0 0 0 0 0 0 0 0 0 0 0 0 0 0 0 0 0 0 0 0 0
0 0 0 0 0 0 0 0 0 0 0 0 0 0 0 0 0 0 0 0 0 0 0 0 0 0 0 0 0 0 0 0 0 0 0 0 0 0 0 0 0 0 0
0 0 0 0 0 0 0 0 0 0 0 0 0 0 0 0 0 0 0 0 0 0 0 0 0 0 0 0 0 0 0 0 0 0 0 0 0 0 0 0 0 0 0
0 0 0 0 0 0 0 0 0 0 0 0 0 0 0 0 0 0 0 0 0 0 0 0 0 0 0 0 0 0 0 0 0 0 0 0 0 0 0 0 0 0 0
0 0 0 0 0 0 0 0 0 0 0 0 0 0 0 0 0 0 0 0 0 0 0 0 0 0 0 0 0 0 0 0 0 0 0 0 0 0 0 0 0 0 0
0 0 0 0 0 0 0 0 0 0 0 0 0 0 0 0 0 0 0 0 0 0 0 0 0 0 0 0 0 0 0 0 0 0 0 0 0 0 0 0 0 0 0
0 0 0 0 0 0 0 0 0 0 0 0 0 0 0 0 0 0 0 0 0 0 0 0 0 0 0 0 0 0 0 0 0 0 0 0 0 0 0 0 0 0 0
0 0 0 0 0 0 0 0 0 0 0 0 0 0 0 0 0 0 0 0 0 0 0 0 0 0 0 0 0 0 0 0 0 0 0 0 0 0 0 0 0 0 0

GEFSSE_con_cape1000_198.txt.gz
Probability
0 16 32 32 35 42 45 42 39 39 42 32 42 45 52 55 52 52 48 52 45 52 52 55 61 61 52 52 52 52 58 55 58 55 48 45 42 48 48 52 48 45 45
0 13 39 35 32 35 39 32 29 29 32 35 35 39 45 52 42 42 42 45 45 48 45 48 48 48 45 48 48 45 48 45 45 42 39 42 45 45 42 42 48 55 48
0 13 23 35 32 32 35 23 26 32 35 32 32 35 39 39 42 39 35 32 42 42 42 39 42 45 42 45 48 42 42 39 42 35 39 42 45 45 39 45 52 45 39
0 10 19 32 32 19 23 23 19 23 29 29 32 32 39 35 39 42 23 23 32 32 39 32 32 32 32 39 42 45 45 35 32 32 32 29 42 52 48 55 48 48 48
3 10 23 35 26 23 23 23 19 19 23 26 23 26 26 19 29 29 23 13 16 26 29 29 26 23 26 29 35 39 35 32 23 23 32 42 55 52 48 48 48 48 32
6 6 16 42 35 19 26 23 19 16 19 23 23 23 23 16 26 19 19 16 16 16 19 26 29 29 29 32 39 32 23 19 26 29 32 39 52 45 45 39 39 32 32
10 10 13 29 29 23 23 23 16 13 13 23 23 19 16 16 16 10 13 10 10 19 16 19 19 23 29 32 35 29 19 23 23 26 29 39 52 39 32 35 26 29 29
10 10 13 16 16 13 13 13 10 10 13 19 16 13 16 19 13 13 10 13 10 13 13 16 13 13 23 29 35 26 23 23 16 13 23 39 39 39 29 26 35 29 29
10 13 10 10 10 13 13 16 16 13 6 6 10 13 16 10 10 13 13 16 10 13 13 16 10 16 16 19 32 19 19 26 13 16 16 48 45 42 32 29 32 29 26
10 13 10 13 6 6 10 10 10 10 10 6 13 13 19 10 13 13 10 13 13 16 13 16 16 16 10 19 19 16 3 6 10 10 23 39 45 39 32 32 26 23 26
10 10 10 6 6 6 6 6 10 13 10 10 16 16 13 6 6 10 13 13 13 10 10 13 10 6 6 6 10 6 10 3 13 19 23 26 29 32 32 35 32 26 23
10 13 10 6 6 6 6 6 13 6 6 10 13 13 13 10 6 3 6 16 13 6 10 10 6 3 3 3 3 10 10 6 10 10 23 19 23 19 26 26 29 23 23
6 6 10 6 0 3 10 6 10 13 10 10 10 10 6 10 6 6 10 13 13 0 0 0 0 0 0 3 6 6 6 6 13 16 16 16 19 23 23 19 26 26 23
0 3 6 10 3 3 0 0 10 10 6 6 6 6 6 10 6 3 3 10 6 6 0 3 0 0 0 0 0 3 3 16 16 19 13 13 13 13 19 19 19 13 19
0 3 6 10 3 3 3 3 0 6 6 3 6 3 0 3 0 0 0 3 3 3 0 3 0 0 3 3 0 0 0 3 3 6 10 13 10 6 10 16 13 10 10
0 3 6 3 3 3 0 0 0 0 0 0 0 0 0 0 0 0 0 3 0 0 0 3 3 3 3 3 3 0 3 0 3 3 3 3 0 0 0 3 3 0 3
0 3 10 3 3 3 3 0 0 0 0 0 0 0 0 0 0 0 0 0 0 0 0 0 3 3 3 3 3 3 3 3 3 3 3 3 0 0 0 0 3 0 0
0 0 10 3 3 3 3 0 0 0 0 0 0 0 0 0 0 0 0 0 0 3 6 6 3 3 3 3 3 0 0 3 3 3 3 0 0 0 0 0 3 3 3
6 3 6 6 0 0 0 0 0 0 0 0 0 0 0 0 0 0 0 0 3 3 3 3 3 3 3 3 3 0 0 3 3 3 3 0 0 0 0 0 0 0 3
6 6 10 6 3 0 0 0 0 0 0 0 0 0 0 0 0 0 0 0 0 3 3 3 3 3 3 6 0 0 3 3 6 6 0 0 0 0 0 0 3 0 0
13 13 6 6 3 0 0 0 0 0 0 0 0 0 0 0 0 0 0 0 3 3 3 3 3 3 6 6 3 0 0 0 6 3 3 0 0 0 0 0 3 3 3
16 10 6 6 6 3 0 0 0 0 0 0 0 0 0 0 0 0 0 0 0 3 0 0 3 10 3 3 3 3 6 3 3 0 0 0 3 3 0 0 3 0 3
13 6 3 6 6 0 0 0 0 0 0 0 0 0 0 0 3 0 0 0 0 3 10 3 0 3 0 0 0 6 6 3 3 3 0 0 3 3 3 3 3 0 0
13 10 3 6 6 6 0 0 0 0 0 3 0 0 0 0 3 0 0 0 0 3 3 0 0 3 3 3 0 0 0 3 6 3 0 0 0 0 0 0 0 0 0
6 10 6 6 6 6 0 0 0 0 0 0 0 0 0 0 0 3 3 0 0 0 0 0 0 0 0 0 0 0 0 0 0 0 0 0 0 0 0 0 0 0 0
3 6 10 10 10 10 10 3 0 0 0 0 0 0 3 3 0 3 3 0 0 0 0 0 0 0 0 0 0 0 0 0 0 0 0 0 0 0 0 0 0 0 0

GEFSSE_con_cape1000_204.txt.gz
Probability
35 32 55 48 39 39 39 35 39 39 42 42 35 45 42 42 45 42 48 55 42 45 48 55 55 52 45 48 61 58 55 52 48 45 45 55 61 52 52 52 48 52 55
16 23 52 45 32 35 39 35 32 32 26 29 26 35 32 35 39 39 35 39 48 35 42 39 39 42 42 42 48 39 32 39 45 45 48 52 48 45 48 52 52 52 52
16 16 35 48 35 32 29 29 29 29 29 26 26 32 32 35 39 39 39 32 39 35 32 35 29 32 35 32 32 32 32 35 42 48 52 42 45 45 45 48 55 55 45
13 16 23 52 32 26 23 26 26 26 29 29 29 32 35 32 32 26 26 29 26 29 39 32 29 19 29 32 32 26 29 26 35 45 26 32 32 48 48 52 52 48 35
19 23 32 42 29 26 23 23 23 19 23 26 23 32 32 32 26 26 23 19 23 26 23 19 23 19 26 35 32 26 32 32 29 35 23 19 26 45 45 48 45 35 35
19 23 35 39 32 29 26 19 23 19 23 26 23 26 19 26 19 19 16 19 16 19 23 23 26 23 19 23 16 16 23 26 35 13 16 19 23 45 39 39 45 42 35
13 19 19 39 29 26 16 13 19 19 19 19 19 19 10 6 6 13 13 16 16 19 19 16 16 23 23 19 19 19 29 42 19 13 16 19 23 42 35 35 35 32 35
16 16 13 35 35 23 16 19 13 23 23 19 19 19 13 13 16 16 13 13 16 16 13 19 23 29 16 16 19 23 35 48 10 10 19 23 29 32 29 35 39 35 23
13 16 13 10 16 26 23 23 19 10 16 19 23 19 13 16 10 6 10 13 19 19 13 19 23 19 13 10 10 23 32 42 10 6 10 19 35 32 35 32 35 35 29
6 10 13 10 10 6 10 19 13 13 16 13 16 13 10 10 10 10 16 16 16 16 19 23 19 10 6 10 6 13 29 13 10 6 10 23 32 29 32 29 26 19 23
10 10 13 13 10 6 6 10 16 13 10 10 16 13 13 6 6 6 6 16 16 19 23 19 13 6 6 6 13 19 6 3 6 3 6 19 23 26 19 16 19 19 23
6 10 13 16 10 6 3 10 10 6 10 10 6 6 6 6 3 3 6 10 19 19 19 19 13 10 6 0 3 3 3 3 6 3 6 26 19 23 23 16 19 19 19
3 10 10 13 6 3 3 3 3 3 6 3 6 3 3 3 3 3 0 10 3 13 3 6 10 3 0 0 0 3 0 0 3 6 6 19 19 19 19 19 19 16 13
6 3 6 3 0 0 0 3 3 3 3 0 3 0 3 0 0 0 0 0 3 3 3 3 3 3 0 0 0 0 0 0 3 3 0 13 13 16 10 13 13 13 10
6 6 6 6 0 0 0 0 3 3 0 0 3 0 0 0 0 0 0 0 0 0 0 3 0 0 0 3 3 3 3 0 3 3 3 3 6 3 10 13 13 10 6
6 6 10 6 3 0 0 0 0 3 3 3 3 0 0 0 0 0 0 0 0 0 0 0 0 0 0 3 3 3 3 0 3 3 3 0 0 0 0 3 6 10 6
3 6 6 6 6 0 0 0 0 0 0 0 0 0 0 0 0 0 0 0 0 0 0 0 0 0 3 3 3 3 3 3 3 0 3 0 0 0 3 0 0 6 6
3 0 3 6 3 0 0 0 0 0 0 0 0 0 0 0 0 0 0 0 0 0 0 0 0 0 3 3 3 3 3 0 0 0 0 0 0 0 0 0 0 0 6
3 0 3 3 0 0 0 0 0 0 0 0 0 0 0 0 0 0 0 0 0 0 0 0 0 0 0 0 0 0 3 0 0 0 0 0 0 0 0 0 0 0 0
0 3 3 6 0 0 0 0 0 0 0 0 0 0 0 0 0 0 0 0 3 3 0 0 0 3 3 0 0 0 3 3 0 0 0 0 0 0 0 0 0 0 0
3 3 3 6 0 0 0 0 0 0 0 0 0 0 0 0 0 0 0 3 3 3 3 0 0 0 3 0 0 0 3 0 0 0 0 0 0 0 0 0 0 0 0
0 3 3 3 3 0 0 0 3 0 0 0 3 0 0 0 0 0 0 0 0 3 0 0 0 0 0 0 0 0 0 0 0 0 0 0 0 0 0 0 0 0 0
3 0 3 3 3 0 0 0 0 0 0 0 0 0 0 0 3 0 0 0 0 0 0 0 0 0 0 0 0 0 0 0 0 0 0 0 0 0 0 0 0 0 0
3 0 0 3 3 0 0 3 3 0 0 0 0 0 0 0 0 0 0 3 0 0 0 0 3 0 0 0 0 0 0 0 0 0 0 0 0 0 0 0 0 0 0
3 3 0 0 6 3 3 6 6 3 3 0 0 0 0 0 3 3 0 0 3 0 0 0 3 3 0 3 0 0 0 0 0 0 0 0 0 0 0 0 0 0 0
6 10 3 6 6 6 3 3 6 3 3 3 0 0 0 0 0 0 0 0 0 0 0 0 0 0 0 0 0 0 0 0 0 0 0 0 0 0 0 0 0 0 0

GEFSSE_con_cape1000_210.txt.gz
Probability
6 29 52 48 52 52 48 52 55 52 52 52 45 45 55 52 48 45 52 52 48 52 52 52 52 45 48 45 52 58 48 58 61 55 48 55 45 48 58 48 48 52 58
10 29 58 55 52 45 42 45 48 48 42 45 35 32 39 42 45 42 42 39 39 39 35 42 39 35 39 35 35 48 45 48 52 52 48 39 42 45 52 55 48 48 48
10 32 48 55 48 42 39 39 39 45 35 35 35 32 35 39 39 39 39 35 32 32 35 35 35 32 29 35 29 35 42 42 52 48 42 26 32 48 52 48 55 48 45
10 13 35 48 45 48 45 39 39 39 42 39 39 29 32 32 32 35 32 29 29 26 32 32 29 26 26 32 32 35 35 39 42 32 16 23 29 42 42 45 39 35 29
10 13 48 52 48 48 48 39 39 39 42 39 39 35 29 29 35 35 32 29 26 23 23 23 29 23 16 32 29 29 35 35 35 16 13 13 26 39 48 42 39 42 39
10 16 45 45 45 45 39 39 35 32 29 32 39 35 29 29 26 26 35 32 26 19 19 16 19 19 13 19 26 29 32 29 10 3 3 6 23 35 42 42 39 39 39
10 19 29 48 45 39 35 35 32 29 26 23 32 29 23 23 23 19 23 26 26 23 23 23 19 16 23 29 35 39 32 16 3 3 6 10 16 42 39 42 39 32 29
16 23 29 42 32 32 32 26 35 26 23 23 29 26 19 19 16 16 19 26 29 26 29 23 19 23 23 32 39 29 35 13 3 3 6 6 23 35 35 42 39 29 29
13 19 19 23 26 29 29 26 29 26 23 26 26 26 23 23 16 16 23 23 19 29 23 19 16 19 19 32 35 35 29 16 0 3 6 10 29 32 29 29 29 19 19
13 10 10 13 10 10 13 19 26 23 26 26 23 23 19 16 13 13 13 19 16 19 16 16 13 10 6 29 29 26 6 6 0 3 6 19 26 19 19 19 23 23 26
6 6 10 10 6 6 6 16 16 19 19 19 10 16 10 3 0 6 16 23 19 19 19 16 10 6 6 16 16 13 0 0 0 0 6 26 19 13 13 19 19 26 23
3 3 6 6 6 6 6 3 0 10 10 10 3 6 0 0 0 0 10 16 13 13 13 16 10 3 3 0 0 0 0 0 0 0 6 19 13 10 13 10 16 19 16
3 6 3 3 6 0 0 0 0 0 0 0 0 0 0 0 0 0 0 3 3 6 0 3 3 0 0 0 0 0 0 0 0 0 3 16 10 10 10 13 10 13 10
6 6 3 6 3 0 0 0 0 0 0 0 0 0 0 0 0 0 0 0 0 0 0 0 0 0 0 0 0 0 0 0 0 0 0 10 10 16 16 13 6 6 6
3 10 3 6 3 0 0 0 0 0 0 0 0 0 0 0 0 0 0 0 0 0 0 0 0 0 0 0 0 0 0 0 0 0 0 0 6 13 13 10 6 6 6
6 3 6 6 0 0 0 0 0 0 0 0 0 0 0 0 0 0 0 0 0 0 0 0 0 0 0 0 0 0 0 0 0 0 0 0 3 3 3 6 6 6 3
6 0 3 3 0 0 0 0 0 0 0 0 0 0 0 0 0 0 0 0 0 0 0 0 0 0 0 0 0 0 0 0 0 0 0 0 0 0 3 3 6 3 3
3 3 3 6 3 0 0 0 0 0 0 0 0 0 0 0 0 0 0 0 0 0 0 0 0 0 0 0 0 0 0 0 0 0 0 0 0 0 0 0 6 3 3
0 3 0 3 3 0 0 0 0 0 0 0 0 0 0 0 0 0 0 0 0 0 0 0 0 0 0 0 0 0 0 0 0 0 0 0 0 0 0 0 0 3 3
0 3 0 0 0 0 0 0 0 0 0 0 0 0 0 0 0 0 0 0 0 0 0 0 0 0 0 0 0 0 0 0 0 0 0 0 0 0 0 0 0 0 0
0 3 3 0 0 0 0 0 0 0 0 0 0 0 0 0 0 0 0 0 0 0 0 0 0 0 0 0 0 0 0 0 0 0 0 0 0 0 0 0 0 0 0
0 0 3 0 0 0 0 0 0 0 0 0 0 0 0 0 0 0 0 0 0 0 0 0 0 0 0 0 0 0 0 0 0 0 0 0 0 0 0 0 0 0 0
0 0 3 0 3 0 0 0 0 0 0 0 0 0 0 0 0 0 0 0 0 0 0 0 0 0 0 0 0 0 0 0 0 0 0 0 0 0 0 0 0 0 0
0 0 0 0 0 0 0 0 0 0 0 0 0 0 0 0 0 0 0 0 0 0 0 0 0 0 0 0 0 0 0 0 0 0 0 0 0 0 0 0 0 0 0
0 0 0 0 0 0 0 0 0 0 0 0 0 0 0 0 0 0 0 0 0 0 0 0 0 0 0 0 0 0 0 0 0 0 0 0 0 0 0 0 0 0 0
0 0 0 0 0 0 0 0 0 0 0 0 0 0 0 0 0 0 0 0 0 0 0 0 0 0 0 0 0 0 0 0 0 0 0 0 0 0 0 0 0 0 0

GEFSSE_con_cape1000_216.txt.gz
Probability
0 6 39 48 45 35 45 45 52 48 45 45 42 45 45 52 48 52 45 52 52 58 52 52 48 52 42 45 45 61 65 61 61 55 52 45 52 55 45 48 48 48 55
0 16 48 42 35 32 45 45 45 42 45 42 35 35 42 48 45 45 42 45 39 42 48 45 45 39 35 42 48 52 48 58 58 42 42 42 42 42 42 48 45 45 58
3 23 39 35 35 32 35 45 45 42 42 42 35 35 39 42 39 35 35 32 32 32 32 35 42 39 39 35 45 39 45 39 45 52 42 29 32 48 48 42 45 45 42
6 16 26 32 32 35 35 39 42 35 39 35 26 29 29 32 39 35 32 26 23 29 32 35 39 39 35 45 45 45 55 52 45 32 13 23 26 39 48 42 42 32 39
13 13 26 35 32 32 29 29 32 29 26 26 29 23 23 23 23 23 26 19 19 26 29 35 35 39 35 29 48 48 48 42 32 19 3 6 16 39 48 45 35 42 32
10 16 29 39 35 29 29 29 32 32 39 32 32 23 19 23 29 26 23 23 26 23 19 26 32 26 32 39 45 42 39 29 6 0 0 3 19 42 45 42 39 35 29
10 16 26 35 35 32 23 26 26 26 23 29 29 16 19 19 23 23 19 23 29 23 16 19 26 26 32 39 45 45 26 16 0 0 3 3 23 42 45 42 35 23 26
13 16 23 32 35 23 23 23 19 23 29 29 29 26 23 16 19 23 29 26 23 23 16 26 32 32 39 35 35 29 23 10 3 3 3 3 29 42 39 39 29 23 23
13 10 13 19 23 26 29 23 19 16 19 26 23 19 19 16 16 23 19 16 16 32 32 32 29 29 26 29 26 26 16 10 0 3 3 10 29 35 35 29 23 19 23
10 13 16 13 13 10 10 19 16 23 26 23 19 16 16 19 19 19 16 16 16 19 19 23 16 16 23 23 29 16 10 3 0 0 3 16 26 29 26 26 23 23 19
6 6 10 10 6 6 3 13 13 16 16 10 10 10 6 3 3 3 16 16 16 19 23 23 19 16 13 19 19 6 0 0 0 0 3 13 16 19 16 16 13 19 19
6 6 3 10 6 3 3 3 6 6 3 0 0 3 0 0 0 3 10 16 16 10 13 19 16 6 3 0 0 0 0 0 0 0 3 13 16 13 16 13 16 16 16
6 3 3 6 3 3 3 3 3 0 0 0 0 0 0 0 0 0 0 0 3 3 3 3 0 0 0 0 0 0 0 0 0 0 3 3 3 6 10 16 16 13 13
6 6 3 3 0 0 3 0 0 0 0 0 0 0 0 0 0 0 0 0 0 0 0 0 0 0 0 0 0 0 0 0 0 0 0 6 3 3 6 6 10 6 10
3 6 3 3 0 0 0 0 0 0 0 0 0 0 0 0 0 0 0 0 0 0 0 0 0 0 0 0 0 0 0 0 0 0 0 0 13 6 6 6 10 6 10
3 3 6 3 3 0 0 0 0 0 0 0 0 0 0 0 0 0 0 0 0 0 0 0 0 0 0 0 0 0 0 0 0 0 0 0 0 0 10 10 13 6 6
6 6 3 3 3 3 0 0 0 0 0 0 0 0 0 0 0 0 0 0 0 0 0 0 0 0 0 0 0 0 0 0 0 0 0 0 0 0 0 0 3 6 6
6 6 6 3 3 3 0 0 0 0 0 0 0 0 0 0 0 0 0 0 0 0 0 0 0 0 0 0 0 0 0 0 0 0 0 0 0 0 0 0 3 3 3
6 3 3 0 3 3 3 0 0 0 0 0 0 0 0 0 0 0 0 0 0 0 0 0 0 0 0 0 0 0 0 0 0 0 0 0 0 0 0 0 0 0 3
6 0 0 0 0 0 0 0 0 0 0 0 0 0 0 0 0 0 0 0 0 0 0 0 0 0 0 0 0 0 0 0 0 0 0 0 0 0 0 0 0 0 0
3 0 0 0 0 0 0 0 0 0 0 0 0 0 0 0 0 0 0 0 0 0 0 0 0 0 0 0 0 0 0 0 0 0 0 0 0 0 0 0 0 0 0
3 0 0 0 0 0 0 0 0 0 0 0 0 0 0 0 0 0 0 0 0 0 0 0 0 0 0 0 0 0 0 0 0 0 0 0 0 0 0 0 0 0 0
0 0 0 0 3 0 0 0 0 0 0 0 0 0 0 0 0 0 0 0 0 0 0 0 0 0 0 0 0 0 0 0 0 0 0 0 0 0 0 0 0 0 0
0 0 0 0 0 0 0 0 0 0 0 0 0 0 0 0 0 0 0 0 0 0 0 0 0 0 0 0 0 0 0 0 0 0 0 0 0 0 0 0 0 0 0
0 0 0 0 0 0 0 0 0 0 0 0 0 0 0 0 0 0 0 0 0 0 0 0 0 0 0 0 0 0 0 0 0 0 0 0 0 0 0 0 0 0 0
0 0 0 0 0 0 0 0 0 0 0 0 0 0 0 0 0 0 0 0 0 0 0 0 0 0 0 0 0 0 0 0 0 0 0 0 0 0 0 0 0 0 0

GEFSSE_con_cape1000_222.txt.gz
Probability
6 10 32 35 35 32 45 45 39 42 32 42 45 42 45 39 39 52 48 45 48 52 55 48 45 52 55 58 52 58 48 48 52 52 55 48 42 39 45 32 48 55 45
6 10 42 45 45 32 42 42 39 32 32 35 39 35 32 32 32 39 39 39 42 42 42 39 39 42 45 55 52 48 42 48 42 45 39 45 39 32 39 32 48 52 52
6 19 32 42 42 29 35 42 39 35 35 35 32 35 32 35 29 29 29 35 32 26 42 39 42 35 39 45 55 55 45 42 39 42 39 42 39 32 39 42 52 48 45
10 13 13 35 35 29 39 39 35 32 32 32 26 26 26 32 32 29 32 32 29 29 35 42 39 32 35 45 45 52 45 42 35 35 29 35 32 39 42 45 48 35 48
6 13 23 32 26 26 32 29 35 26 26 23 19 19 23 32 29 32 23 26 26 29 26 35 39 35 42 48 52 42 39 32 26 29 23 42 48 42 39 39 35 29 35
10 13 23 32 23 23 29 29 29 29 23 19 19 16 19 19 19 16 23 23 23 29 29 32 42 42 32 39 42 35 42 32 19 32 29 32 42 42 35 35 26 23 23
10 13 16 32 26 23 23 29 26 26 32 23 13 13 19 16 19 19 23 23 26 29 32 29 32 39 32 39 32 26 16 19 16 23 32 42 39 42 35 26 26 26 26
16 19 16 32 29 26 19 16 16 23 29 23 13 13 16 13 10 16 26 32 29 26 26 32 35 29 29 29 29 16 26 10 6 10 23 35 32 42 35 29 26 23 26
19 19 19 10 19 29 26 19 19 29 23 19 16 16 10 10 16 19 23 26 32 26 26 32 29 23 23 29 26 19 16 23 13 6 3 26 35 39 32 35 29 26 26
19 19 19 16 13 19 23 29 19 16 16 13 19 23 16 16 16 19 13 23 26 29 35 32 26 26 26 26 19 19 10 6 10 6 6 13 16 26 26 29 16 19 16
16 16 16 16 16 6 6 10 19 16 16 10 13 10 10 6 6 10 6 23 29 23 23 29 19 19 26 19 6 3 6 6 6 6 6 10 16 16 13 13 13 16 16
13 13 13 16 16 10 6 13 16 3 16 10 10 6 6 6 6 6 3 13 19 23 23 19 13 6 6 3 0 3 3 6 3 6 3 6 10 16 10 10 6 13 16
10 13 16 13 16 19 16 16 13 10 13 10 6 3 6 3 3 6 10 10 13 10 10 6 6 3 3 6 6 0 0 3 10 6 6 3 10 10 13 13 16 19 16
10 13 16 13 19 13 13 10 10 16 13 10 10 3 3 3 0 3 6 6 10 10 6 6 10 3 0 0 0 0 0 3 3 3 10 6 3 3 10 10 10 16 13
13 13 10 10 16 13 16 16 13 13 6 10 10 0 0 0 0 0 3 6 3 10 10 10 6 0 0 0 0 0 0 0 0 0 6 6 3 3 3 6 10 16 13
16 16 16 10 10 13 13 16 13 10 16 10 6 0 0 0 0 0 0 0 6 6 6 6 0 3 6 3 0 0 0 0 0 0 0 10 3 6 3 6 19 16 13
13 13 16 13 10 13 6 10 6 10 6 10 10 3 0 0 0 0 0 3 3 6 3 6 0 0 0 0 0 3 3 3 3 3 0 0 3 3 6 3 3 3 10
10 10 6 10 10 13 6 10 10 13 6 3 6 6 0 0 0 0 3 3 3 6 10 3 3 3 0 0 3 3 3 3 3 3 3 0 3 0 3 3 3 0 0
13 10 10 3 6 6 10 10 10 10 16 3 6 6 3 0 0 0 3 3 6 10 6 0 6 0 3 3 3 0 3 0 3 3 3 0 0 3 3 0 0 0 0
16 13 13 6 6 10 10 6 6 10 10 10 6 6 6 3 3 3 3 3 0 3 3 6 0 0 0 0 0 0 0 0 0 3 3 3 0 0 0 0 0 0 0
19 19 16 6 3 10 10 10 10 10 10 10 10 6 6 6 0 3 3 0 3 3 0 3 6 3 3 0 0 0 0 0 0 0 3 3 0 0 0 0 0 0 0
19 19 13 6 3 3 6 6 6 6 10 10 10 6 10 3 3 3 0 3 3 10 0 3 10 6 0 0 0 0 0 0 0 0 0 0 0 3 0 0 0 0 0
13 19 13 10 10 10 6 6 3 3 3 10 10 10 10 6 6 0 0 0 0 3 6 6 10 6 0 0 0 0 0 0 0 0 0 0 0 0 0 0 0 0 0
6 13 13 10 10 6 6 6 3 6 10 10 13 10 10 10 6 0 0 0 0 3 3 3 3 6 6 3 3 0 0 0 0 0 0 0 0 0 0 0 0 0 0
6 6 6 10 13 13 10 13 16 10 10 6 3 6 10 13 6 3 3 0 3 3 0 0 0 3 3 6 10 6 0 0 0 0 0 0 0 0 0 0 0 0 0
3 6 6 3 10 13 13 10 16 13 16 10 13 6 6 10 6 3 3 0 0 3 3 3 6 6 6 3 6 6 0 0 0 0 0 0 0 0 0 0 0 0 0

GEFSSE_con_cape1000_228.txt.gz
Probability
26 23 52 48 39 35 39 32 35 39 35 39 35 45 52 48 45 45 48 42 42 48 42 48 52 55 58 61 61 58 52 45 52 48 39 45 45 45 39 39 39 39 52
23 29 45 48 42 35 39 35 32 29 32 39 29 32 32 48 42 42 42 39 42 42 35 35 48 52 42 48 52 52 42 39 35 42 42 39 55 52 35 42 45 48 45
23 26 35 48 35 29 35 35 32 29 29 29 29 26 29 26 29 35 42 32 29 32 26 32 45 42 45 52 48 42 35 32 35 42 52 39 39 48 48 52 45 45 45
23 19 23 39 35 32 32 39 29 29 23 26 19 26 26 23 26 29 29 29 26 29 39 39 42 45 45 48 39 35 39 42 45 39 35 29 26 42 45 42 42 45 39
19 23 29 42 32 32 32 35 26 23 23 19 16 23 19 23 19 26 19 23 23 29 32 42 45 45 45 26 32 29 29 39 48 39 29 29 32 39 39 39 35 39 35
16 19 26 39 23 26 35 29 26 26 19 16 23 19 23 23 23 23 19 19 29 32 32 39 42 42 26 29 29 32 32 42 39 19 16 13 23 42 39 32 29 29 29
13 10 13 35 32 26 26 23 23 19 16 19 13 16 23 19 19 19 19 23 29 39 42 42 42 35 26 23 26 29 32 39 10 10 6 6 35 42 35 29 23 23 26
16 10 16 42 35 35 29 26 23 19 19 19 16 16 16 23 23 13 23 35 29 35 39 39 29 32 32 26 23 23 23 32 6 3 6 6 42 42 39 23 19 23 26
19 16 13 23 29 45 39 26 19 19 16 16 16 16 16 16 16 26 32 35 35 29 32 35 35 29 23 26 26 26 23 23 3 3 3 6 39 32 23 23 23 23 26
16 16 16 10 19 13 29 32 23 10 10 19 19 19 23 26 19 26 19 32 32 39 35 32 35 26 19 23 16 16 16 16 3 3 3 6 29 26 23 26 19 19 23
16 19 16 16 16 13 10 16 19 13 10 19 13 19 10 6 6 6 19 39 39 39 32 26 23 23 19 13 19 23 6 3 3 3 3 19 16 16 13 16 16 13 13
13 19 16 19 19 10 6 16 13 10 6 3 10 3 6 6 3 6 16 35 42 39 29 29 29 19 13 0 6 10 0 0 3 3 3 16 13 10 3 13 13 10 10
13 13 10 13 13 3 6 6 10 10 10 10 10 3 3 3 3 3 3 13 13 16 10 19 13 6 0 3 0 0 0 0 0 0 3 13 13 10 6 6 3 10 6
6 6 10 10 10 10 10 10 10 10 6 10 3 3 0 3 6 6 13 10 10 10 6 3 3 0 0 0 0 0 0 0 0 0 0 10 16 13 10 6 3 3 3
10 10 13 10 13 13 13 10 10 10 6 3 6 3 3 3 0 6 3 6 6 6 0 0 0 0 0 0 0 0 0 0 0 0 0 10 10 10 10 10 3 6 6
6 6 6 13 13 10 10 10 10 6 0 6 6 0 0 0 0 3 0 6 6 3 0 0 0 0 0 0 0 0 0 0 0 0 0 3 10 6 10 10 6 6 3
0 6 3 6 13 13 6 6 6 3 3 3 0 0 0 0 0 0 0 3 6 0 0 0 0 0 0 0 0 0 3 3 0 0 0 0 0 0 6 6 10 6 3
6 6 10 3 6 6 10 6 6 6 6 6 0 0 0 0 0 0 3 0 0 0 0 0 0 0 0 0 0 0 0 0 0 0 0 0 0 0 0 3 6 10 6
3 6 10 6 3 6 3 6 6 6 6 3 6 0 0 0 0 3 3 6 0 0 0 0 0 0 0 0 0 0 0 0 0 0 0 0 0 0 0 0 3 6 6
3 10 10 13 3 6 3 6 6 6 6 6 3 3 0 0 0 0 3 3 6 0 0 0 0 0 0 0 0 0 0 0 0 0 0 0 0 0 0 0 0 0 0
6 10 10 10 6 0 3 3 6 6 6 10 10 6 6 0 0 0 0 0 0 0 0 0 0 0 0 0 0 0 0 0 0 0 0 0 0 0 0 0 0 0 0
6 6 6 6 6 0 0 3 3 3 3 6 13 3 6 0 0 3 0 0 0 0 0 0 3 0 0 0 0 0 0 0 0 0 0 0 0 0 0 0 0 0 0
10 6 6 6 6 3 0 0 0 0 10 10 6 10 3 3 3 3 0 0 3 3 3 3 3 0 0 0 0 0 0 0 0 0 0 0 0 0 0 0 0 0 0
6 10 10 6 6 3 0 3 10 6 3 3 3 13 10 10 3 0 3 3 0 0 3 3 3 3 3 3 0 0 0 0 0 0 0 0 0 0 0 0 0 0 0
6 6 10 10 6 6 3 3 6 6 6 3 3 10 10 10 6 6 6 3 3 3 3 3 0 3 3 0 0 0 0 0 0 0 0 0 0 0 0 0 0 0 0
3 6 10 13 13 10 6 6 6 6 3 3 3 3 6 6 3 3 6 3 3 3 3 0 0 3 3 3 0 0 0 0 0 0 0 0 0 0 0 0 0 0 0

GEFSSE_con_cape1000_234.txt.gz
Probability
6 23 58 52 52 52 52 55 42 45 35 45 52 58 55 52 55 55 61 55 52 52 48 61 58 61 52 52 58 55 58 48 58 61 52 55 65 48 48 42 48 48 52
13 32 52 55 55 48 48 45 39 35 35 29 39 52 48 52 52 45 55 55 52 39 45 45 55 55 48 52 48 45 42 45 52 45 52 45 55 45 42 45 45 45 52
23 39 48 48 48 48 48 48 42 32 29 35 39 39 45 45 42 39 35 45 48 48 48 52 55 52 52 48 42 42 42 39 45 45 39 19 39 45 45 48 52 45 42
23 26 35 52 48 48 52 45 42 35 32 32 32 39 42 39 35 39 39 42 45 42 42 52 48 45 39 39 29 42 39 48 39 29 10 16 23 35 39 45 45 42 42
19 26 39 48 52 52 48 45 35 35 39 32 23 32 35 32 32 35 39 48 45 39 39 42 39 32 35 52 39 45 48 42 35 10 3 3 16 39 39 39 35 39 29
19 19 39 42 48 45 45 42 35 39 35 32 29 29 32 32 32 32 32 35 32 32 35 35 39 48 42 42 39 35 35 29 10 3 0 3 16 35 35 35 35 29 29
16 19 26 48 39 39 42 42 35 32 32 26 29 29 29 29 32 26 29 26 29 29 29 39 45 42 39 39 26 23 26 23 6 0 3 3 26 32 35 29 35 29 26
13 23 26 48 39 39 39 35 35 29 26 23 29 23 23 23 23 26 29 26 29 35 45 39 32 39 32 29 29 19 26 16 3 3 3 3 26 32 26 16 19 23 23
16 19 23 32 45 48 42 39 35 29 29 19 23 23 26 19 26 23 23 26 29 32 32 29 35 32 29 29 26 23 19 13 3 3 3 3 26 26 23 19 19 23 13
10 16 13 23 23 26 26 45 45 29 32 29 29 23 32 23 16 19 26 29 23 23 26 23 16 19 19 19 26 26 16 3 0 3 3 6 19 13 16 23 19 19 19
10 10 16 10 13 13 16 19 29 39 29 29 16 16 16 6 3 13 23 29 29 26 26 19 19 16 16 23 19 19 10 0 0 0 3 10 16 16 19 19 19 16 16
13 10 10 10 10 6 13 13 3 3 3 3 0 3 3 3 3 3 13 29 32 32 29 26 29 23 6 0 0 3 0 0 0 0 3 16 13 13 13 13 19 10 13
6 6 10 6 6 3 3 0 0 0 0 0 0 0 3 3 3 3 3 10 10 6 6 13 10 0 0 0 0 0 0 0 0 0 3 13 16 13 10 10 10 10 10
3 3 13 10 6 3 3 3 0 0 0 0 0 0 0 0 0 0 0 0 0 0 0 0 0 0 0 0 0 0 0 0 0 0 3 10 13 10 6 6 10 3 10
3 6 6 6 3 3 3 3 3 3 0 0 0 0 0 0 0 0 0 0 0 0 0 0 0 0 0 0 0 0 0 0 0 0 0 6 16 13 13 6 6 6 10
6 3 3 0 0 3 3 3 0 3 3 3 0 0 0 0 0 0 0 0 0 0 0 0 0 0 0 0 0 0 0 0 0 0 0 0 13 19 19 10 6 6 6
3 3 3 3 0 0 6 3 0 0 0 0 0 0 0 0 0 0 0 0 0 0 0 0 0 0 0 0 0 0 0 0 0 0 0 0 0 0 13 13 13 10 6
3 3 3 3 0 0 0 0 0 0 0 0 0 0 0 0 0 0 0 0 0 0 0 0 0 0 0 0 0 0 0 0 0 0 0 0 0 0 0 6 6 6 6
3 3 3 3 0 0 0 0 0 0 0 0 0 0 0 0 0 0 0 0 0 0 0 0 0 0 0 0 0 0 0 0 0 0 0 0 0 0 0 0 6 6 6
0 3 3 3 3 0 0 0 0 0 0 0 0 0 0 0 0 0 0 0 0 0 0 0 0 0 0 0 0 0 0 0 0 0 0 0 0 0 0 0 0 0 6
0 3 3 3 3 0 0 0 0 0 0 0 0 0 0 0 0 0 0 0 0 0 0 0 0 0 0 0 0 0 0 0 0 0 0 0 0 0 0 0 0 0 0
3 3 3 3 3 3 0 0 0 0 0 0 0 0 0 0 0 0 0 0 0 0 0 0 0 0 0 0 0 0 0 0 0 0 0 0 0 0 0 0 0 0 0
0 3 6 3 3 3 0 0 0 0 0 0 0 0 0 0 0 0 0 0 0 0 0 0 0 0 0 0 0 0 0 0 0 0 0 0 0 0 0 0 0 0 0
0 0 0 6 3 0 0 0 0 0 0 0 0 0 0 0 0 0 0 0 0 0 0 0 0 0 0 0 0 0 0 0 0 0 0 0 0 0 0 0 0 0 0
0 0 0 6 3 0 0 0 0 0 0 0 0 0 0 0 0 0 0 0 0 0 0 0 0 0 0 0 0 0 0 0 0 0 0 0 0 0 0 0 0 0 0
0 0 3 3 3 0 0 0 0 0 0 0 0 0 0 0 0 0 0 0 0 0 0 0 0 0 0 0 0 0 0 0 0 0 0 0 0 0 0 0 0 0 0

GEFSSE_con_cape1000_240.txt.gz
Probability
3 10 42 39 45 42 42 42 39 42 52 52 48 45 48 48 45 48 48 55 52 61 58 58 58 55 55 61 68 65 65 68 65 61 58 61 58 45 48 55 52 52 52
6 19 45 45 39 42 42 39 39 32 35 45 48 48 45 45 45 52 48 52 48 55 52 55 52 52 48 52 61 65 55 52 45 52 48 39 39 35 35 48 48 45 55
10 19 42 52 45 39 45 45 39 32 26 29 48 48 48 42 45 45 48 45 55 55 55 52 58 52 52 55 55 58 61 52 42 39 39 13 29 39 45 42 48 42 35
19 19 32 48 48 45 42 35 29 26 23 26 29 35 39 35 35 45 52 45 42 42 42 48 52 45 48 55 58 61 48 48 35 29 3 10 16 32 39 42 35 39 42
19 19 29 45 48 42 45 35 35 29 26 23 23 26 32 32 32 39 52 45 42 39 39 42 48 52 55 58 55 48 42 29 23 10 3 3 10 35 32 35 32 29 29
19 19 19 42 42 39 39 39 32 32 29 29 26 26 26 23 35 29 39 42 45 42 35 42 42 48 48 42 48 39 35 19 10 3 3 3 10 32 39 42 29 23 23
16 16 19 32 39 32 39 35 32 35 32 29 26 19 19 23 26 29 35 45 45 39 39 42 45 39 35 42 39 39 29 23 0 3 3 3 16 32 42 35 29 23 23
16 19 23 29 35 32 32 35 32 26 32 29 29 23 23 23 26 23 29 35 35 32 35 39 35 35 39 42 42 39 29 16 6 0 0 3 19 26 29 26 26 23 19
19 19 23 23 26 35 45 39 35 35 35 32 26 23 19 23 19 23 29 29 32 32 29 35 32 35 35 39 35 32 26 16 0 3 3 6 16 16 29 19 26 16 16
13 16 19 19 26 23 26 39 39 35 39 42 39 26 19 13 13 19 19 23 32 26 23 19 23 29 32 35 35 29 16 6 0 0 3 6 19 19 16 16 19 16 16
13 13 16 16 16 16 16 23 26 29 29 29 10 16 16 6 3 6 16 19 23 32 23 19 19 23 32 29 26 13 6 0 0 0 0 6 16 16 13 19 19 19 16
3 13 10 13 16 10 13 6 6 6 6 6 3 3 3 3 3 3 10 29 29 23 26 29 23 19 0 0 0 0 0 0 0 0 3 13 19 16 16 16 16 16 19
3 6 6 13 6 10 6 3 3 0 0 0 0 0 3 3 3 3 3 3 3 6 3 3 0 0 0 0 0 0 0 0 0 0 0 16 16 19 16 19 13 13 13
3 3 3 6 0 3 6 6 0 0 0 0 0 0 0 0 0 0 3 3 0 0 0 0 0 0 0 0 0 0 0 0 0 0 3 16 19 13 16 16 13 13 10
3 6 3 6 0 0 3 3 0 0 0 0 0 0 0 0 0 0 0 0 0 0 0 0 0 0 0 0 0 0 0 0 0 0 0 6 10 13 13 13 13 13 6
3 6 6 6 0 0 0 0 0 0 0 0 0 0 0 0 0 0 0 0 0 0 0 0 0 0 0 0 0 0 0 0 0 0 0 0 10 10 13 10 10 6 3
6 6 6 6 0 0 0 0 0 0 0 0 0 0 0 0 0 0 0 0 0 0 0 0 0 0 0 0 0 0 0 0 0 0 0 0 0 0 6 6 6 6 6
3 6 6 6 0 0 0 0 0 0 0 0 0 0 0 0 0 0 0 0 0 0 0 0 0 0 0 0 0 0 0 0 0 0 0 0 0 0 6 6 6 3 3
3 0 6 3 3 3 0 0 0 0 0 0 0 0 0 0 0 0 0 0 0 0 0 0 0 0 0 0 0 0 0 0 0 0 0 0 0 0 0 0 3 0 0
0 0 3 3 0 0 0 0 0 0 0 0 0 0 0 0 0 0 0 0 0 0 0 0 0 0 0 0 0 0 0 0 0 0 0 0 0 0 0 0 0 0 3
0 0 3 3 0 0 0 0 0 0 0 0 0 0 0 0 0 0 0 0 0 0 0 0 0 0 0 0 0 0 0 0 0 0 0 0 0 0 0 0 0 0 0
0 0 3 3 3 0 0 0 0 0 0 0 0 0 0 0 0 0 0 0 0 0 0 0 0 0 0 0 0 0 0 0 0 0 0 0 0 0 0 0 0 0 0
0 0 0 3 3 0 0 0 0 0 0 0 0 0 0 0 0 0 0 0 0 0 0 0 0 0 0 0 0 0 0 0 0 0 0 0 0 0 0 0 0 0 0
0 0 0 3 3 0 0 0 0 0 0 0 0 0 0 0 0 0 0 0 0 0 0 0 0 0 0 0 0 0 0 0 0 0 0 0 0 0 0 0 0 0 0
0 0 0 3 3 3 0 0 0 0 0 0 0 0 0 0 0 0 0 0 0 0 0 0 0 0 0 0 0 0 0 0 0 0 0 0 0 0 0 0 0 0 0
0 0 0 3 3 3 3 3 3 0 0 0 0 0 0 0 0 0 0 0 0 0 0 0 0 0 0 0 0 0 0 0 0 0 0 0 0 0 0 0 0 0 0

GEFSSE_con_cape1000_246.txt.gz
Probability
6 16 35 35 39 39 35 35 35 35 29 29 39 39 35 45 42 39 48 52 52 55 55 61 65 52 61 58 55 55 65 61 68 61 55 61 48 52 55 55 52 48 45
6 13 39 35 35 39 39 35 29 26 26 29 35 35 35 39 42 39 39 45 45 48 52 48 52 52 58 55 61 58 52 52 52 52 55 45 39 39 42 48 42 45 42
10 19 26 35 35 39 35 35 29 26 23 23 35 32 39 39 35 39 45 42 42 39 39 52 45 52 48 48 55 52 45 39 42 32 42 35 35 42 42 42 39 35 35
6 19 13 45 42 42 32 35 32 23 26 26 26 32 35 35 42 42 39 45 35 35 32 32 45 48 48 52 48 45 35 35 35 32 19 26 26 32 35 39 39 35 35
10 13 16 42 42 42 35 39 32 32 29 23 19 23 26 32 29 32 35 42 42 29 29 42 39 39 48 48 45 39 35 39 23 23 23 35 45 32 32 32 39 35 32
16 19 19 32 35 42 32 35 35 29 26 26 26 19 23 29 29 32 29 39 39 26 32 35 39 39 39 39 39 39 35 23 16 19 26 23 29 35 32 35 23 32 32
19 19 16 32 32 32 39 39 32 35 35 23 19 16 26 26 19 32 29 29 32 26 32 35 29 35 32 35 35 29 19 29 16 19 23 23 26 26 29 26 16 29 26
16 19 16 26 35 32 32 42 45 32 35 29 23 16 23 19 23 16 29 26 29 26 26 32 32 35 35 39 32 23 13 19 6 10 16 29 29 23 19 16 10 16 26
19 19 23 19 26 29 35 42 48 39 32 29 32 19 19 23 19 16 23 26 29 26 19 26 35 39 35 39 29 26 19 19 10 13 10 16 23 23 16 19 19 19 23
16 19 19 19 19 19 19 29 35 39 35 23 19 19 16 13 13 13 23 19 26 26 26 23 23 26 29 29 32 26 13 6 6 10 16 23 23 19 23 26 23 16 19
16 16 19 19 23 23 32 26 29 29 35 23 16 16 13 6 6 10 16 29 26 26 19 23 23 19 19 19 26 10 0 6 3 3 13 26 26 19 23 19 16 23 19
16 19 10 10 13 19 16 26 29 23 23 16 10 6 10 10 10 10 10 19 16 19 19 23 23 19 13 16 6 3 0 0 3 3 6 16 23 19 16 13 19 23 13
10 6 6 6 6 10 13 19 19 23 23 13 6 3 6 10 10 13 13 16 23 13 13 10 10 6 10 10 6 0 3 3 3 6 19 16 16 19 19 19 26 13 13
6 10 10 10 3 6 10 13 13 13 16 19 13 10 6 3 6 10 13 13 16 16 19 13 13 6 6 10 3 0 0 0 13 19 23 13 19 19 16 19 13 13 6
6 6 10 10 6 3 6 16 0 13 13 13 19 13 6 13 6 0 6 13 6 10 10 13 6 6 10 3 0 0 0 0 3 10 26 16 16 10 6 6 6 3 3
6 3 6 10 10 6 10 10 13 13 19 13 13 10 3 3 0 0 3 6 3 6 3 10 3 3 6 6 3 0 0 0 3 6 16 13 10 13 10 6 6 3 0
6 6 6 10 10 6 6 6 10 13 13 10 10 10 3 3 0 3 0 0 0 0 3 3 0 0 3 3 3 0 0 0 10 3 3 6 3 6 13 6 0 0 0
6 6 10 10 10 10 6 6 13 6 10 16 13 10 6 3 0 3 0 0 0 0 0 10 6 3 0 3 0 0 0 6 3 3 3 6 10 3 3 3 3 3 3
6 3 6 10 6 6 10 3 10 6 10 10 10 10 6 0 0 10 6 3 0 0 3 3 6 6 0 0 0 0 0 0 3 3 3 3 3 3 3 0 0 0 0
6 6 3 10 10 6 6 3 6 10 6 10 10 3 3 6 0 3 3 3 3 3 6 6 6 6 10 3 0 0 0 0 0 3 3 3 3 0 0 0 0 0 0
6 6 6 3 10 10 6 6 6 6 6 3 0 3 3 6 3 3 3 3 10 6 6 6 3 6 3 3 0 0 3 0 0 0 0 0 0 0 0 0 0 0 0
6 6 6 3 6 10 10 6 6 6 10 0 0 3 3 3 3 0 6 6 10 13 6 6 3 6 3 3 3 3 0 0 0 0 0 0 0 0 0 0 0 0 0
6 3 3 3 6 10 10 6 3 3 3 0 0 6 3 3 3 0 3 3 0 3 13 10 6 3 3 3 3 3 3 0 0 0 0 0 0 0 0 0 0 0 0
10 3 3 3 3 6 6 6 6 6 3 0 0 0 0 0 0 0 0 6 3 3 10 6 6 10 6 6 3 3 3 3 3 0 0 0 0 0 0 0 0 0 0
6 3 6 3 0 6 6 6 6 3 3 3 3 0 0 0 0 0 3 3 3 3 3 6 6 6 10 10 3 3 3 3 3 3 3 0 0 0 0 0 0 0 0
3 3 3 0 3 6 6 6 6 3 3 3 3 3 3 0 0 0 0 3 3 0 6 6 10 10 6 6 6 3 3 3 3 3 3 3 0 0 0 0 0 0 0

GEFSSE_con_cape1000_252.txt.gz
Probability
26 26 48 52 42 35 32 32 29 29 35 39 32 32 29 35 39 45 45 32 35 42 52 42 39 48 52 45 52 45 52 61 61 45 52 52 52 52 52 48 55 55 58
23 29 52 52 45 39 26 26 26 32 26 29 32 29 32 39 42 45 39 35 35 29 48 35 48 48 45 45 42 39 39 48 42 52 58 52 48 45 39 48 45 45 48
23 26 42 45 52 39 39 26 26 26 32 29 32 35 32 35 39 39 39 29 32 32 39 42 45 48 48 42 39 39 35 39 29 32 48 29 32 48 42 45 35 39 42
13 16 32 45 48 39 39 35 29 32 32 29 23 26 26 26 39 39 26 26 26 29 35 35 32 32 42 39 26 26 26 32 32 48 16 29 26 42 45 42 39 35 39
10 13 32 45 48 42 35 32 29 26 29 26 23 23 16 26 35 35 26 23 16 23 29 26 29 29 29 29 32 29 26 32 39 35 13 16 16 39 42 35 32 32 39
16 16 26 48 42 32 35 32 29 32 26 29 23 16 19 19 26 26 26 26 23 29 29 29 26 26 26 32 32 39 39 35 26 16 16 16 16 29 29 29 32 39 32
19 19 19 42 32 29 32 29 26 29 23 16 16 19 16 19 23 23 19 16 13 29 26 26 26 29 35 32 26 26 29 42 10 13 16 16 23 42 26 23 23 32 29
23 26 19 42 39 32 32 32 19 23 19 16 19 16 19 19 23 23 19 16 26 23 32 26 26 29 26 26 23 26 29 35 13 16 16 16 29 35 29 23 35 32 35
16 26 29 26 29 32 39 35 26 23 23 19 19 19 13 26 19 19 19 19 16 23 23 26 29 32 23 19 19 23 26 32 3 6 10 16 32 26 19 23 32 32 26
16 16 16 26 29 32 29 42 35 32 26 23 26 26 16 10 16 26 19 23 19 26 23 23 26 19 16 13 23 26 29 16 3 0 10 19 29 23 23 29 29 35 26
13 16 13 13 19 26 19 26 32 35 29 29 26 35 23 6 6 6 13 23 16 29 23 19 23 23 19 26 26 26 16 0 0 3 10 23 29 26 26 32 29 19 19
6 6 10 10 10 13 19 26 26 26 29 19 13 6 6 6 6 6 10 26 23 23 26 19 23 29 23 10 10 29 3 3 3 6 6 29 23 23 23 19 19 10 6
3 3 3 3 3 3 10 16 16 16 19 16 10 10 10 6 6 6 6 13 10 10 10 16 23 13 10 10 6 0 0 6 6 6 6 29 19 19 10 16 10 10 10
3 3 3 3 3 3 13 13 13 16 6 13 13 6 6 6 6 10 6 6 6 6 10 6 6 6 3 3 3 0 3 6 6 6 6 26 16 13 16 13 10 6 6
3 3 3 6 6 3 6 13 13 16 13 13 16 6 3 3 0 3 0 0 6 6 3 3 3 0 0 0 0 0 0 3 3 6 3 16 23 13 16 13 10 10 13
3 3 3 3 6 3 3 6 6 6 16 16 10 10 10 3 3 0 0 0 3 6 3 3 3 0 3 0 0 0 0 0 6 3 3 10 16 19 16 10 13 6 6
3 3 3 3 3 3 3 6 10 10 13 6 10 10 10 6 0 0 0 0 3 0 3 3 0 3 3 0 0 0 3 0 6 6 3 3 3 3 16 13 10 6 3
3 3 3 3 3 3 3 10 10 10 13 13 10 6 3 3 0 0 0 0 0 0 6 0 0 3 0 0 0 0 0 3 0 3 3 3 3 0 3 6 10 6 3
6 3 3 6 3 3 6 3 6 6 10 10 6 10 3 0 0 0 3 0 0 0 6 6 0 0 0 3 0 0 0 0 0 3 3 3 0 0 0 0 6 6 3
3 6 3 3 6 10 6 3 6 6 6 3 6 6 3 3 3 0 0 3 0 0 3 3 0 3 3 3 0 0 0 0 0 0 0 0 0 0 0 0 0 0 0
3 6 3 6 6 6 10 3 3 3 3 3 6 6 3 3 0 0 0 0 3 0 6 6 10 3 3 3 3 0 0 0 0 0 0 0 0 0 0 0 0 0 0
3 3 6 3 3 6 13 10 6 3 3 3 6 10 6 3 0 0 0 3 0 3 6 3 6 6 3 3 3 0 0 0 0 0 0 0 0 0 0 0 0 0 0
3 3 6 3 3 6 13 13 6 3 3 3 10 10 6 3 0 0 0 0 0 0 3 3 10 6 3 3 3 0 0 0 0 0 0 0 0 0 0 0 0 0 0
3 3 6 6 3 3 6 10 6 3 6 6 10 3 6 0 0 0 0 0 0 0 0 3 6 6 3 3 3 3 3 0 0 0 0 0 0 0 0 0 0 0 0
6 6 6 6 3 3 6 10 10 6 6 6 6 3 3 0 0 0 0 0 0 0 0 0 0 0 3 3 3 3 3 3 0 0 0 0 0 0 0 0 0 0 0
6 6 6 6 6 3 10 13 13 10 6 3 3 3 3 3 0 0 0 0 3 3 3 3 3 3 3 3 3 3 3 3 0 0 0 0 0 0 0 0 0 0 0

GEFSSE_con_cape1000_258.txt.gz
Probability
10 29 55 52 52 42 42 35 35 32 32 29 32 42 39 39 39 39 42 39 39 55 52 39 61 58 55 58 52 55 55 58 65 61 55 48 55 55 52 61 58 48 55
6 39 48 52 42 45 39 35 35 32 29 29 42 42 39 39 35 29 39 39 39 48 35 42 52 52 48 48 45 52 52 45 52 52 48 39 45 39 42 42 48 45 58
13 42 45 52 45 42 39 35 32 26 23 29 32 39 35 39 35 35 35 42 29 35 52 42 45 48 42 39 42 45 45 52 48 39 26 13 29 39 39 39 39 48 55
16 32 42 52 48 39 32 35 32 29 23 23 26 29 32 35 29 29 26 35 23 23 35 42 45 42 42 42 42 45 45 39 35 19 13 6 13 32 32 39 39 42 45
16 26 45 52 45 45 42 39 32 35 23 26 26 23 29 35 35 29 26 26 26 23 26 35 39 32 35 45 45 39 35 29 23 13 0 0 10 35 42 39 45 39 42
13 26 48 55 42 48 39 26 26 29 26 26 23 23 29 32 35 32 26 29 26 26 26 26 26 29 35 45 42 35 23 19 16 6 3 6 13 29 35 39 35 39 35
10 13 45 65 48 48 45 29 29 29 29 26 19 23 32 32 29 32 32 29 23 23 26 26 26 32 35 39 32 26 23 26 3 3 6 3 19 29 35 35 32 35 29
13 13 45 65 65 52 45 32 35 29 32 23 23 26 29 29 32 29 19 16 13 16 23 29 32 26 26 35 32 26 23 26 6 3 3 13 32 39 35 32 32 29 23
13 13 16 39 52 65 58 48 35 35 35 29 26 23 29 32 29 26 23 19 16 13 16 23 23 29 23 29 32 32 26 23 6 3 6 16 29 35 35 39 32 29 23
6 13 13 13 13 26 29 55 52 42 42 39 32 39 39 35 26 23 26 23 19 13 13 19 13 23 23 32 39 32 23 13 3 3 3 16 29 35 32 32 26 26 23
6 6 6 10 10 10 6 32 39 45 35 32 29 32 26 3 6 6 16 29 26 23 13 16 19 19 32 29 39 26 10 3 3 3 10 26 32 26 32 23 19 19 26
6 6 6 10 10 6 6 6 6 16 19 16 10 6 3 3 3 6 6 26 23 23 26 32 29 19 13 0 6 3 0 0 0 3 10 26 26 29 35 19 16 13 13
6 6 6 6 10 6 6 6 6 6 10 13 6 3 3 3 3 3 3 6 6 10 3 10 10 0 0 0 0 0 0 0 0 0 13 32 26 23 23 23 16 10 13
6 6 3 3 10 10 6 3 3 3 0 3 0 0 0 0 0 3 3 0 0 0 0 0 0 0 0 0 0 0 0 0 0 0 6 39 23 23 19 19 13 10 13
6 3 3 6 10 10 6 3 3 3 0 0 0 0 0 0 0 0 0 0 0 0 0 0 0 0 0 0 0 0 0 3 0 0 3 26 32 26 19 16 13 6 13
3 3 3 3 3 6 6 6 6 0 0 0 0 0 0 0 0 0 0 0 0 0 0 0 0 0 0 0 0 0 0 0 0 3 3 10 16 23 19 13 6 10 13
3 3 3 3 3 6 3 3 3 3 3 0 0 0 0 0 0 0 0 0 0 0 0 0 0 0 0 0 0 0 0 0 0 3 0 0 3 13 26 19 16 19 13
3 3 3 3 6 6 3 3 3 3 3 0 0 0 0 0 0 0 0 0 0 0 0 0 0 0 0 0 0 0 0 0 0 0 0 0 0 0 0 13 10 13 13
3 3 3 3 6 6 6 3 3 3 3 0 0 0 0 0 0 0 0 0 0 0 0 0 0 0 0 0 0 0 0 0 0 0 0 0 0 0 0 0 6 3 6
0 3 3 0 0 3 3 0 3 3 0 0 0 0 0 0 0 0 0 0 0 0 0 0 0 0 0 0 0 0 0 0 0 0 0 0 0 0 0 0 0 0 6
0 0 3 0 0 0 0 0 0 0 0 0 0 0 0 0 0 0 0 0 0 0 0 0 0 0 0 0 0 0 0 0 0 0 0 0 0 0 0 0 0 0 0
0 0 0 0 0 0 0 0 0 0 0 0 0 0 0 0 0 0 0 0 0 0 0 0 0 0 0 0 0 0 0 0 0 0 0 0 0 0 0 0 0 0 0
0 0 0 0 0 0 0 0 3 0 0 3 0 0 0 0 0 0 0 0 0 0 0 0 0 0 0 0 0 0 0 0 0 0 0 0 0 0 0 0 0 0 0
0 0 0 0 0 0 0 0 3 3 3 3 0 0 0 0 0 0 0 0 0 0 0 0 0 0 0 0 0 0 0 0 0 0 0 0 0 0 0 0 0 0 0
0 0 0 0 0 0 0 0 3 3 3 3 0 0 0 0 0 0 0 0 0 0 0 0 0 0 0 0 0 0 0 0 0 0 0 0 0 0 0 0 0 0 0
0 0 3 3 0 0 0 0 0 0 3 3 3 0 0 0 0 0 0 0 0 0 0 0 0 0 0 0 0 0 0 0 0 0 0 0 0 0 0 0 0 0 0